This is the latest recevied weather packets stored in our database for station/object JI8TEY-15. If no packets are shown the sender has not sent any weather packets the latest 10 day(s).
| Time | Temp. | Humidity | Pressure | Rain* | Wind** | Luminosity | Snow |
|---|---|---|---|---|---|---|---|
| 1777399087 | 6.11° C | 59% | 1010 hPa | 0 mm | - | - | - |
| 1777395486 | 5° C | 66% | 1010 hPa | 0 mm | - | - | - |
| 1777391887 | 3.33° C | 60% | 1010 hPa | 0 mm | - | - | - |
| 1777388288 | 5° C | 60% | 1010 hPa | 0 mm | - | - | - |
| 1777384687 | 5.56° C | 60% | 1011 hPa | 0 mm | - | - | - |
| 1777381087 | 6.11° C | 59% | 1011 hPa | 0 mm | - | - | - |
| 1777377486 | 7.22° C | 59% | 1011 hPa | 0 mm | - | - | - |
| 1777373887 | 7.22° C | 59% | 1011 hPa | 0 mm | - | - | - |
| 1777370288 | 6.67° C | 59% | 1010 hPa | 0 mm | - | - | - |
| 1777366687 | 7.22° C | 59% | 1009 hPa | 0 mm | - | - | - |
| 1777363086 | 8.89° C | 58% | 1009 hPa | 0 mm | - | - | - |
| 1777359487 | 9.44° C | 58% | 1008 hPa | 0 mm | - | - | - |
| 1777355887 | 10° C | 58% | 1008 hPa | 0 mm | - | - | - |
| 1777352287 | 9.44° C | 58% | 1007 hPa | 0 mm | - | - | - |
| 1777348688 | 9.44° C | 58% | 1008 hPa | 0 mm | - | - | - |
| 1777345087 | 10° C | 58% | 1008 hPa | 0 mm | - | - | - |
| 1777341486 | 10.56° C | 58% | 1009 hPa | 0 mm | - | - | - |
| 1777337888 | 9.44° C | 58% | 1007 hPa | 0 mm | - | - | - |
| 1777334286 | 8.89° C | 58% | 1008 hPa | 0 mm | - | - | - |
| 1777330687 | 8.89° C | 58% | 1008 hPa | 0 mm | - | - | - |
| 1777327088 | 8.33° C | 58% | 1008 hPa | 0 mm | - | - | - |
| 1777323487 | 7.22° C | 59% | 1007 hPa | 0 mm | - | - | - |
| 1777319887 | 7.22° C | 65% | 1007 hPa | 0 mm | - | - | - |
| 1777316287 | 7.22° C | 79% | 1006 hPa | 0 mm | - | - | - |
| 1777312686 | 7.78° C | 81% | 1006 hPa | 0 mm | - | - | - |
* Rain latest hour (hover to see other rain measurements)
** Current wind speed in m/s (hover to see current wind gust speed)